Location: *
(43.7000°S, 168.7000°W)
Time: 14:43:42
(UTC+00:00)

Cosmos 1656 - Pass Details

Date: 07 July 2020
Orbit: 800 x 848 km, 71.1° (Epoch: 03 August)

Event Time Altitude Azimuth Distance (km) Brightness Sun altitude
Rises 17:05:53 0° 326° (NW) 3,351 6.6 -17.8°
Reaches altitude 10° 17:08:19 10° 321° (NW) 2,433 5.9 -17.3°
Maximum altitude 17:13:50 59° 242° (WSW) 968 3.7 -16.4°
Drops below altitude 10° 17:19:30 10° 162° (SSE) 2,492 6.2 -15.4°
Sets 17:22:02 0° 157° (SSE) 3,438 6.9 -14.9°
